AirNav   Pilot Hours Calculator
 
 1266 users online  

2K9 Haskell Airport
Haskell, Oklahoma, USA

GOING TO HASKELL?


FAA INFORMATION EFFECTIVE 16 JUNE 2022

Location

FAA Identifier: 2K9
Lat/Long: 35-49-58.3000N 095-40-02.7000W
35-49.971667N 095-40.045000W
35.8328611,-95.6674167
(estimated)
Elevation: 588 ft. / 179.2 m (surveyed)
Variation: 06E (1985)
From city: 1 mile NE of HASKELL, OK
Time zone: UTC -5 (UTC -6 during Standard Time)
Zip code: 74436

Airport Operations

Airport use: Open to the public
Activation date: 11/1971
Control tower: no
ARTCC: KANSAS CITY CENTER
FSS: MC ALESTER FLIGHT SERVICE STATION
NOTAMs facility: MLC (NOTAM-D service available)
Attendance: IREG
Wind indicator: yes
Segmented circle: no

Airport Communications

CTAF: 122.9
WX AWOS-3PT at OKM (17 nm SW): 118.225 (918-756-9502)
WX ASOS at MKO (18 nm SE): 135.025 (918-683-6987)
WX ASOS at RVS (20 nm NW): 126.5 (918-299-0740)

Airport Services

Fuel available: 100LL
Parking: hangars and tiedowns
Airframe service: NONE
Powerplant service: NONE
Bottled oxygen: NONE
Bulk oxygen: NONE

Runway Information

Runway 17/35

Dimensions: 3710 x 30 ft. / 1131 x 9 m
Surface: asphalt, in fair condition
Runway edge markings: SML NRS & NTSD CNTRLN.
RUNWAY 17  RUNWAY 35
Latitude: 35-50.276955N35-49.665347N
Longitude: 095-40.049280W095-40.040760W
Elevation: 587.0 ft.584.0 ft.
Traffic pattern: left
ULTRALIGHT USE RIGHT TFC.
left
Runway heading: 173 magnetic, 179 true353 magnetic, 359 true
Markings: NSTD, in good conditionNSTD, in good condition
Obstructions: 58 ft. trees, 200 ft. from runway, 40 ft. right of centerline
56 FT TREES 170 FT FM THR 40 FT RIGHT.
none
13 FT TREES 20 FT FM THR 48 FT RIGHT; 20 FT TREES 20 FT FM THR 65 FT LEFT; 15 FT RD 40 FT FM THR.

Airport Ownership and Management from official FAA records

Ownership: Privately-owned
Owner: H.E. REYNOLDS
15576 S. 289TH E AVE
COWETA, OK 74429
Phone 918-231-3232
Manager: H.E. REYNOLDS
15576 S. 289TH E. AVE
COWETA, OK 74429
Phone 918-231-3232

Airport Operational Statistics

Aircraft based on the field: 30
Single engine airplanes: 25
Ultralights: 5
    
Aircraft operations: avg 51/week *
98% local general aviation
2% transient general aviation
* for 12-month period ending 22 September 2021

Additional Remarks

ULTRALIGHT ACT ON & INVOF ARPT.
DALGT OPS ONLY.
FOR CD CTC TULSA APPROACH AT 918-831-6714.

Instrument Procedures

There are no published instrument procedures at 2K9.

Some nearby airports with instrument procedures:

KOKM - Okmulgee Regional Airport (17 nm SW)
H68 - Hefner-Easley Airport (18 nm NE)
KMKO - Muskogee-Davis Regional Airport (18 nm SE)
KRVS - Tulsa Riverside Airport (20 nm NW)
KTUL - Tulsa International Airport (24 nm NW)
 
Loc | Ops | Rwys | IFR | FBO | Links
Com | Nav | Svcs | Stats | Notes
Area around 2K9 (Haskell Airport)
 
Road maps at: MapQuest Bing Google
 
Aerial photo
WARNING: Photo may not be current or correct
Aerial photo of 2K9 (Haskell Airport)
Photo by Brent Butler
Photo taken 26-Aug-2010
looking North.

Do you have a better or more recent aerial photo of Haskell Airport that you would like to share? If so, please send us your photo.

 
Sectional chart

 
Airport distance calculator
Flying to Haskell Airport? Find the distance to fly.

From to 2K9

Sunrise and sunset
Times for 02-Jul-2022
 Local
(UTC-5)
 Zulu
(UTC)
Morning civil twilight05:4110:41
Sunrise06:1111:11
Sunset20:4201:42
Evening civil twilight21:1202:12

Current date and time
Zulu (UTC)  02-Jul-2022 22:05:08
Local (UTC-5)  02-Jul-2022 17:05:08
 
METAR
KOKM 
17nm SW 
022155Z AUTO 16010KT 10SM CLR 35/20 A2991 RMK AO2 T03490197
KMKO 
18nm SE 
022153Z AUTO 15007KT 10SM CLR 33/21 A2993 RMK AO2 SLP125 T03330211
KRVS 
20nm NW 
022153Z 16008G15KT 140V200 10SM FEW055 35/21 A2989 RMK AO2 SLP123 T03500211
KTUL 
24nm NW 
022153Z 18008KT 10SM BKN060 BKN250 35/21 A2989 RMK AO2 SLP111 T03500206
KH71 
29nm NE 
022155Z AUTO 20006KT 10SM 35/21 A2989 RMK AO2
KGCM 
29nm N 
022155Z AUTO 20005KT 7SM SCT055 33/17 A2993 RMK AO2
KOWP 
31nm NW 
022135Z AUTO 14009KT 10SM SCT055 35/20 A2992 RMK AO2 T03530203 PWINO
KTQH 
33nm E 
022155Z AUTO 15003KT 10SM SCT055 SCT070 36/16 A2993 RMK AO2
TAF
KRVS 
20nm NW 
021722Z 0218/0318 16006KT P6SM SCT050 BKN250 FM030200 VRB03KT P6SM SCT080 BKN250
KTUL 
24nm NW 
021722Z 0218/0318 16007KT P6SM SCT050 BKN250
NOTAMs
Click for the latest NOTAMs
NOTAMs are issued by the DoD/FAA and will open in a separate window not controlled by AirNav.

 

 
 

FBO, Fuel Providers, and Aircraft Ground Support

  
 Business Name 
 
 Contact 
 
 Services / Description 
 
Fuel Prices
 
Comments
  
Haskell Airport 918-231-3232
no information available

If you are affiliated with Haskell Airport and would like to show here your services, contact info, web link, logo, and more, click here
100LL
SS $7.15 
 Updated 01-Jul-2022
 
   write
SS=Self service
Update Fuel Prices
 

Would you like to see your business listed on this page?

 If your business provides an interesting product or service to pilots, flight crews, aircraft, or users of the Haskell Airport, you should consider listing it here.  To start the listing process, click on the button below
 
Add a business
 

Other Pages about Haskell Airport

www.haskellairport.com
 
Update a link
 
Copyright © AirNav, LLC. All rights reserved. Privacy Policy  Contact